• en Suisse
  • Liste des pays
  • À 7 jours
  • Température de l'eau
  • Carte satellitaire
  • Carte météo
  • Widgets météo
  • user-avatar
    Se connecter

    Météo par heure à Serhiivka

    Ce jour, 18 Juillet, Mercredi

    Heure Température Précipitation Vent Pression Humidité
    00:00 +19°C° 0,7 mm 2 m/s 734 mmHg 97%
    01:00 +19°C° 0,7 mm 2 m/s 734 mmHg 97%
    02:00 +19°C° 0,7 mm 2 m/s 734 mmHg 98%
    03:00 +19°C° 0,7 mm 2 m/s 734 mmHg 98%
    04:00 +19°C° 0,7 mm 2 m/s 734 mmHg 98%
    05:00 +19°C° 0,7 mm 2 m/s 734 mmHg 98%
    06:00 +20°C° 0,5 mm 2 m/s 734 mmHg 95%
    07:00 +20°C° 0,5 mm 2 m/s 734 mmHg 92%
    08:00 +21°C° 0,5 mm 3 m/s 734 mmHg 89%
    09:00 +22°C° 0,6 mm 3 m/s 734 mmHg 86%
    10:00 +24°C° 0,6 mm 3 m/s 734 mmHg 83%
    11:00 +25°C° 0,6 mm 3 m/s 734 mmHg 80%
    12:00 +25°C° 1,1 mm 3 m/s 734 mmHg 81%
    13:00 +25°C° 1,1 mm 3 m/s 734 mmHg 82%
    14:00 +25°C° 1,1 mm 3 m/s 734 mmHg 82%
    15:00 +25°C° 1 mm 3 m/s 734 mmHg 83%
    16:00 +25°C° 1 mm 3 m/s 734 mmHg 84%
    17:00 +25°C° 1 mm 3 m/s 734 mmHg 84%
    18:00 +24°C° 0,9 mm 3 m/s 734 mmHg 87%
    19:00 +22°C° 0,9 mm 3 m/s 734 mmHg 91%
    20:00 +21°C° 0,9 mm 2 m/s 734 mmHg 94%
    21:00 +20°C° 0,4 mm 2 m/s 734 mmHg 95%
    22:00 +20°C° 0,4 mm 2 m/s 734 mmHg 95%
    23:00 +19°C° 0,4 mm 2 m/s 734 mmHg 96%

    Demain, 19 Juillet, Jeudi

    Heure Température Précipitation Vent Pression Humidité
    00:00 +19°C° 0 mm 2 m/s 734 mmHg 96%
    01:00 +19°C° 0 mm 2 m/s 734 mmHg 97%
    02:00 +18°C° 0 mm 2 m/s 734 mmHg 97%
    03:00 +18°C° 0 mm 2 m/s 734 mmHg 97%
    04:00 +18°C° 0 mm 2 m/s 734 mmHg 97%
    05:00 +18°C° 0 mm 2 m/s 734 mmHg 97%
    06:00 +20°C° 0 mm 2 m/s 734 mmHg 94%
    07:00 +21°C° 0 mm 2 m/s 735 mmHg 90%
    08:00 +23°C° 0 mm 2 m/s 735 mmHg 86%
    09:00 +24°C° 0,3 mm 2 m/s 735 mmHg 82%
    10:00 +25°C° 0,3 mm 2 m/s 735 mmHg 78%
    11:00 +26°C° 0,3 mm 2 m/s 735 mmHg 75%
    12:00 +26°C° 0,7 mm 2 m/s 735 mmHg 74%
    13:00 +27°C° 0,7 mm 2 m/s 735 mmHg 73%
    14:00 +27°C° 0,7 mm 2 m/s 735 mmHg 72%
    15:00 +27°C° 0,4 mm 2 m/s 735 mmHg 74%
    16:00 +27°C° 0,4 mm 2 m/s 735 mmHg 75%
    17:00 +27°C° 0,4 mm 2 m/s 735 mmHg 76%
    18:00 +25°C° 0,1 mm 2 m/s 735 mmHg 81%
    19:00 +24°C° 0,1 mm 1 m/s 735 mmHg 85%
    20:00 +23°C° 0,1 mm 1 m/s 735 mmHg 89%
    21:00 +22°C° 0,1 mm 1 m/s 735 mmHg 90%
    22:00 +22°C° 0,1 mm 1 m/s 735 mmHg 91%
    23:00 +21°C° 0,1 mm 1 m/s 735 mmHg 92%

    Après-demain, 20 Juillet, Vendredi

    Heure Température Précipitation Vent Pression Humidité
    00:00 +21°C° 0 mm 1 m/s 735 mmHg 93%
    01:00 +20°C° 0 mm 1 m/s 735 mmHg 94%
    02:00 +20°C° 0 mm 1 m/s 735 mmHg 95%
    03:00 +20°C° 0,1 mm 1 m/s 735 mmHg 95%
    04:00 +20°C° 0,1 mm 1 m/s 735 mmHg 95%
    05:00 +20°C° 0,1 mm 1 m/s 735 mmHg 96%
    06:00 +21°C° 0,1 mm 1 m/s 736 mmHg 92%
    07:00 +23°C° 0,1 mm 1 m/s 736 mmHg 88%
    08:00 +24°C° 0,1 mm 1 m/s 736 mmHg 84%
    09:00 +25°C° 0,1 mm 1 m/s 736 mmHg 79%
    10:00 +26°C° 0,1 mm 1 m/s 736 mmHg 75%
    11:00 +27°C° 0,1 mm 2 m/s 736 mmHg 70%
    12:00 +27°C° 0,4 mm 1 m/s 736 mmHg 69%
    13:00 +27°C° 0,4 mm 1 m/s 736 mmHg 67%
    14:00 +28°C° 0,4 mm 1 m/s 736 mmHg 66%
    15:00 +28°C° 0,3 mm 1 m/s 736 mmHg 68%
    16:00 +27°C° 0,3 mm 1 m/s 736 mmHg 70%
    17:00 +27°C° 0,3 mm 1 m/s 736 mmHg 72%
    18:00 +26°C° 0,1 mm 1 m/s 736 mmHg 76%
    19:00 +24°C° 0,1 mm 1 m/s 736 mmHg 81%
    20:00 +23°C° 0,1 mm 2 m/s 736 mmHg 86%
    21:00 +21°C° 0 mm 2 m/s 736 mmHg 88%
    22:00 +21°C° 0 mm 2 m/s 736 mmHg 90%
    23:00 +20°C° 0 mm 2 m/s 736 mmHg 93%

    21 Juillet, Samedi

    Heure Température Précipitation Vent Pression Humidité
    00:00 +20°C° 0 mm 2 m/s 736 mmHg 93%
    01:00 +20°C° 0 mm 2 m/s 736 mmHg 94%
    02:00 +20°C° 0 mm 1 m/s 736 mmHg 95%
    03:00 +20°C° 0 mm 1 m/s 736 mmHg 95%
    04:00 +20°C° 0 mm 1 m/s 736 mmHg 96%
    05:00 +20°C° 0 mm 1 m/s 736 mmHg 96%
    06:00 +22°C° 0 mm 1 m/s 736 mmHg 91%
    07:00 +23°C° 0 mm 2 m/s 736 mmHg 87%
    08:00 +24°C° 0 mm 2 m/s 737 mmHg 82%
    09:00 +25°C° 0,4 mm 2 m/s 737 mmHg 79%
    10:00 +26°C° 0,4 mm 2 m/s 737 mmHg 75%
    11:00 +27°C° 0,4 mm 2 m/s 737 mmHg 71%
    12:00 +27°C° 1,8 mm 2 m/s 736 mmHg 72%
    13:00 +28°C° 1,8 mm 3 m/s 736 mmHg 72%
    14:00 +28°C° 1,8 mm 3 m/s 736 mmHg 72%
    15:00 +27°C° 1,1 mm 3 m/s 736 mmHg 75%
    16:00 +27°C° 1,1 mm 2 m/s 736 mmHg 78%
    17:00 +27°C° 1,1 mm 2 m/s 736 mmHg 81%
    18:00 +25°C° 0,1 mm 2 m/s 736 mmHg 85%
    19:00 +24°C° 0,1 mm 2 m/s 736 mmHg 89%
    20:00 +23°C° 0,1 mm 2 m/s 736 mmHg 93%
    21:00 +21°C° 0 mm 2 m/s 736 mmHg 94%
    22:00 +21°C° 0 mm 2 m/s 736 mmHg 95%
    23:00 +20°C° 0 mm 2 m/s 736 mmHg 96%

    22 Juillet, Dimanche

    Heure Température Précipitation Vent Pression Humidité
    00:00 +20°C° 0 mm 2 m/s 736 mmHg 97%
    01:00 +20°C° 0 mm 2 m/s 736 mmHg 97%
    02:00 +19°C° 0 mm 2 m/s 736 mmHg 97%
    03:00 +19°C° 0 mm 2 m/s 736 mmHg 97%
    04:00 +19°C° 0 mm 2 m/s 736 mmHg 97%
    05:00 +19°C° 0 mm 2 m/s 737 mmHg 98%
    06:00 +20°C° 0 mm 2 m/s 737 mmHg 95%
    07:00 +21°C° 0 mm 2 m/s 737 mmHg 93%
    08:00 +23°C° 0 mm 2 m/s 737 mmHg 91%
    09:00 +24°C° 0,1 mm 3 m/s 737 mmHg 89%
    10:00 +24°C° 0,1 mm 3 m/s 737 mmHg 86%
    11:00 +25°C° 0,1 mm 3 m/s 737 mmHg 84%
    12:00 +26°C° 0,2 mm 3 m/s 737 mmHg 81%
    13:00 +27°C° 0,2 mm 3 m/s 737 mmHg 77%
    14:00 +28°C° 0,2 mm 3 m/s 737 mmHg 74%
    15:00 +28°C° 0,1 mm 3 m/s 737 mmHg 74%
    16:00 +28°C° 0,1 mm 3 m/s 737 mmHg 74%
    17:00 +28°C° 0,1 mm 2 m/s 737 mmHg 74%
    18:00 +26°C° 0,3 mm 2 m/s 737 mmHg 79%
    19:00 +25°C° 0,3 mm 2 m/s 737 mmHg 84%
    20:00 +24°C° 0,3 mm 1 m/s 737 mmHg 89%
    21:00 +23°C° 0,1 mm 1 m/s 737 mmHg 91%
    22:00 +23°C° 0,1 mm 2 m/s 737 mmHg 92%
    23:00 +21°C° 0,1 mm 2 m/s 737 mmHg 94%

    23 Juillet, Lundi

    Heure Température Précipitation Vent Pression Humidité
    00:00 +21°C° 0 mm 2 m/s 737 mmHg 94%
    01:00 +20°C° 0 mm 2 m/s 737 mmHg 95%
    02:00 +20°C° 0 mm 2 m/s 738 mmHg 96%
    03:00 +20°C° 0 mm 2 m/s 738 mmHg 96%
    04:00 +20°C° 0 mm 2 m/s 738 mmHg 96%
    05:00 +20°C° 0 mm 2 m/s 738 mmHg 97%
    06:00 +21°C° 0 mm 2 m/s 738 mmHg 93%
    07:00 +23°C° 0 mm 2 m/s 738 mmHg 89%
    08:00 +25°C° 0 mm 2 m/s 739 mmHg 85%
    09:00 +25°C° 0,4 mm 3 m/s 739 mmHg 82%
    10:00 +26°C° 0,4 mm 3 m/s 739 mmHg 79%
    11:00 +27°C° 0,4 mm 4 m/s 739 mmHg 76%
    12:00 +27°C° 0,6 mm 4 m/s 739 mmHg 75%
    13:00 +27°C° 0,6 mm 4 m/s 739 mmHg 74%
    14:00 +27°C° 0,6 mm 4 m/s 739 mmHg 73%
    15:00 +27°C° 0,1 mm 4 m/s 739 mmHg 75%
    16:00 +26°C° 0,1 mm 4 m/s 739 mmHg 77%
    17:00 +26°C° 0,1 mm 4 m/s 739 mmHg 79%
    18:00 +23°C° 0 mm 4 m/s 740 mmHg 83%
    19:00 +22°C° 0 mm 3 m/s 740 mmHg 87%
    20:00 +21°C° 0 mm 3 m/s 740 mmHg 91%
    21:00 +20°C° 0 mm 3 m/s 740 mmHg 92%
    22:00 +19°C° 0 mm 3 m/s 741 mmHg 94%
    23:00 +19°C° 0 mm 2 m/s 741 mmHg 95%
    Voir plus